Weather Roundup
Issued by NWS Springfield, MO

Home | Current Version | Previous Version | Text Only | Print | Product List | Glossary On
Versions: 1 2 3 4 5 6 7 8 9 10 11 12 13 14 15 16 17 18 19 20 21 22 23 24 25 26 27 28 29 30 31 32 33 34 35 36 37 38 39 40 41 42 43 44 45 46 47 48 49 50
000
NZUS99 KSGF 020807
HRRSGF

HOURLY WEATHER
NATIONAL WEATHER SERVICE SPRINGFIELD MO
200 AM CST MON MAR 02 2015

......SGF CWA......

CITY           SKY/WX    TMP DP  RH WIND       PRES   REMARKS
SPRINGFIELD    PTCLDY    21  17  84 NE7       30.47R WCI  12
JOPLIN         PTCLDY    21  18  88 E3        30.49S FOG
WEST PLAINS    PTCLDY    26  21  81 NE7       30.45S WCI  18
ROLLA          PTCLDY    16  14  92 N6        30.47S WCI   7
OSAGE BEACH    PTCLDY    16  12  86 CALM      30.51R

......SURROUNDING SGF CWA......

CITY           SKY/WX    TMP DP  RH WIND       PRES   REMARKS
CHANUTE        CLEAR     17  15  92 CALM      30.50S
PARSONS        PTCLDY    18  16  92 CALM      30.51S
COFFEYVILLE    PTCLDY    21  19  92 N5        30.51R WCI  15
EMPORIA        PTCLDY    18  16  92 SW3       30.49R
GROVE OK       PTCLDY    28  25  86 CALM      30.49S
ROGERS AR      CLOUDY    27  24  89 E7        30.45R WCI  19
SILOAM SPRINGS MOCLDY    28  19  69 CALM      30.45S
HARRISON AR    CLOUDY    29  26  89 N5        30.45S WCI  24
NEAR YELLVILLE MOCLDY    30  21  69 N8        30.46S WCI  23

......KANSAS AND MISSOURI......

CITY           SKY/WX    TMP DP  RH WIND       PRES   REMARKS
KANSAS CTY INT PTCLDY    23  18  81 SW5       30.50S WCI  17
DOWNTOWN KC    PTCLDY    24  20  84 CALM      30.51F
COLUMBIA       PTCLDY    18  16  92 NW5       30.51R FOG     WCI  11
SEDALIA        PTCLDY    18  14  84 SW5       30.52R FOG     WCI  11
ST JOSEPH      PTCLDY    24  21  88 CALM      30.52S
ST LOUIS       PTCLDY    17  12  80 CALM      30.52R
SPIRIT OF STL  FAIR      13  10  88 CALM      30.52S FOG
KIRKSVILLE     CLOUDY    19  17  92 W3        30.50R
WICHITA        MOCLDY    20  17  88 CALM      30.47F FOG
TOPEKA         PTCLDY    22  18  85 CALM      30.52S
OLATHE         PTCLDY    22  19  89 CALM      30.49S

......TENNESSEE......

CITY           SKY/WX    TMP DP  RH WIND       PRES   REMARKS
MEMPHIS        CLOUDY    37  34  89 NE12      30.41R WCI  29
NASHVILLE      CLOUDY    36  34  92 N9        30.39S WCI  29

......ARKANSAS.......

CITY           SKY/WX    TMP DP  RH WIND       PRES   REMARKS
FAYETTEVILLE   CLOUDY    29  27  92 NE8       30.43R WCI  21
FT SMITH       CLOUDY    37  32  82 CALM      30.43F
LITTLE ROCK    CLOUDY    39  34  82 N8        30.43R WCI  33

......OKLAHOMA.......

CITY           SKY/WX    TMP DP  RH WIND       PRES   REMARKS
TULSA          CLOUDY    28  23  81 N7        30.47F WCI  21
PONCA CITY     PTCLDY    20  17  88 CALM      30.49S FOG
MCALESTER      CLOUDY    33  27  78 N9        30.44S WCI  25
OKLAHOMA CITY  CLOUDY    30  23  75 NE10      30.43F WCI  21

......IOWA............

CITY           SKY/WX    TMP DP  RH WIND       PRES   REMARKS
DES MOINES     MOCLDY    20  13  74 W3        30.51R
QUAD CITIES    PTCLDY     7   2  80 W3        30.47R

......ILLINOIS........

CITY           SKY/WX    TMP DP  RH WIND       PRES   REMARKS
QUINCY         CLOUDY    23  17  78 CALM      30.50R
CHICAGO        PTCLDY    17   8  67 W9        30.39R WCI   6



USA.gov is the U.S. government's official web portal to all federal, state and local government web resources and services.